Temperature
11 11 11 10 10 9 9 9 8 8 7 6 5 5 4 3 2 1 0 -1 -1 -2 -3 -3 -3 -3 -3 -3 -3 -3 -3 -4 -5 -5 -4 -3 -4 -4 -4 -5 -6 -6 -6
10 10 10 9 9 9 9 8 8 7 7 6 5 4 4 3 2 1 0 -1 -2 -2 -3 -3 -4 -4 -4 -4 -4 -4 -4 -4 -5 -5 -5 -4 -4 -5 -5 -6 -6 -7 -7
9 9 9 9 8 8 8 8 7 7 6 6 5 4 4 3 2 1 0 -1 -2 -2 -3 -4 -4 -4 -4 -5 -5 -4 -4 -4 -5 -6 -6 -5 -5 -5 -6 -7 -7 -7 -7
8 8 8 8 8 7 7 7 6 6 6 5 5 4 3 2 1 1 -0 -1 -2 -3 -4 -4 -5 -5 -5 -5 -5 -5 -4 -5 -5 -6 -7 -7 -6 -6 -7 -7 -7 -7 -7
8 8 7 7 7 6 6 6 6 5 5 5 4 4 3 2 1 0 -1 -2 -2 -3 -4 -5 -5 -6 -6 -6 -6 -5 -5 -5 -6 -6 -7 -7 -7 -7 -7 -7 -8 -8 -8
7 7 7 6 6 6 5 5 5 5 4 4 3 3 2 2 1 -1 -2 -3 -3 -4 -4 -5 -6 -6 -7 -6 -6 -6 -6 -6 -6 -6 -7 -7 -7 -7 -7 -7 -8 -8 -8
6 6 6 5 5 5 4 4 4 3 3 3 2 2 1 1 -0 -2 -3 -4 -5 -5 -5 -6 -7 -7 -7 -7 -6 -6 -6 -6 -6 -6 -7 -7 -7 -7 -7 -7 -7 -8 -8
6 5 5 4 4 4 3 3 2 2 1 1 1 1 0 0 -1 -2 -4 -5 -5 -5 -6 -6 -7 -7 -7 -7 -6 -6 -6 -6 -6 -6 -6 -6 -7 -7 -7 -7 -7 -7 -8
5 4 4 3 3 2 2 2 1 1 0 0 -0 -0 -1 -1 -2 -3 -4 -5 -5 -6 -6 -6 -7 -7 -7 -7 -7 -6 -6 -5 -5 -6 -7 -7 -7 -7 -7 -7 -7 -8 -8
4 3 3 3 2 1 1 0 0 -0 -0 -0 -1 -1 -1 -2 -2 -4 -5 -5 -6 -6 -6 -7 -7 -7 -7 -7 -7 -7 -6 -5 -6 -6 -7 -7 -7 -7 -7 -8 -8 -9 -9
3 2 2 1 1 0 0 -0 -1 -1 -1 -1 -1 -1 -2 -2 -3 -4 -5 -6 -6 -6 -6 -7 -7 -7 -7 -6 -6 -6 -6 -6 -6 -7 -7 -7 -7 -7 -7 -8 -9 -9 -10
2 1 1 0 -0 -0 -1 -1 -1 -1 -2 -2 -2 -2 -2 -3 -4 -5 -5 -6 -6 -6 -6 -6 -6 -6 -6 -6 -6 -6 -6 -6 -7 -7 -7 -7 -7 -7 -8 -8 -9 -9 -10
0 0 -0 -1 -1 -1 -1 -2 -2 -2 -2 -2 -3 -3 -3 -3 -4 -5 -6 -6 -6 -6 -6 -6 -6 -6 -6 -6 -6 -6 -6 -6 -7 -7 -7 -7 -7 -8 -8 -9 -9 -10 -10
-1 -1 -1 -1 -1 -2 -2 -2 -2 -2 -2 -3 -3 -3 -4 -4 -5 -5 -6 -6 -6 -6 -6 -6 -6 -6 -6 -6 -6 -6 -7 -7 -7 -7 -7 -7 -8 -8 -9 -9 -10 -10 -11
-1 -1 -2 -2 -2 -2 -2 -2 -3 -3 -3 -3 -3 -4 -4 -4 -5 -6 -7 -7 -7 -7 -7 -6 -6 -6 -6 -6 -6 -6 -6 -7 -7 -7 -8 -8 -8 -9 -9 -10 -10 -11 -11
-2 -2 -2 -3 -3 -3 -3 -3 -3 -3 -3 -3 -3 -4 -4 -4 -5 -6 -6 -7 -7 -7 -7 -6 -6 -6 -6 -6 -6 -6 -7 -7 -7 -8 -8 -9 -9 -9 -10 -10 -10 -11 -11
-3 -3 -3 -3 -3 -3 -3 -3 -3 -3 -3 -3 -3 -4 -4 -5 -5 -6 -6 -6 -6 -6 -6 -6 -6 -6 -6 -6 -6 -7 -7 -7 -8 -8 -9 -9 -9 -10 -10 -10 -11 -11 -11
-4 -4 -4 -4 -4 -4 -4 -4 -4 -4 -3 -3 -3 -3 -4 -5 -5 -6 -6 -6 -6 -6 -6 -6 -6 -6 -6 -6 -6 -7 -7 -7 -8 -8 -9 -9 -9 -10 -10 -10 -11 -11 -11
-4 -4 -5 -4 -4 -4 -4 -4 -4 -4 -4 -3 -3 -3 -4 -5 -5 -6 -6 -6 -6 -6 -6 -6 -6 -6 -6 -6 -7 -7 -7 -8 -8 -8 -9 -9 -10 -10 -10 -10 -11 -11 -11
-5 -5 -5 -5 -5 -4 -4 -4 -4 -4 -4 -4 -4 -4 -4 -5 -6 -6 -6 -6 -6 -6 -6 -6 -6 -6 -6 -7 -7 -7 -7 -8 -8 -9 -9 -9 -10 -10 -10 -11 -11 -11 -11
-5 -5 -5 -5 -5 -5 -4 -4 -4 -4 -4 -4 -4 -4 -5 -6 -6 -6 -7 -7 -6 -6 -6 -6 -6 -6 -7 -7 -7 -7 -8 -8 -8 -9 -9 -9 -10 -10 -10 -11 -11 -11 -12
-6 -6 -5 -5 -5 -5 -4 -4 -4 -4 -4 -4 -4 -4 -5 -6 -6 -6 -7 -7 -6 -6 -6 -6 -6 -6 -7 -7 -7 -7 -8 -8 -8 -9 -9 -10 -10 -10 -10 -11 -11 -11 -12
-6 -6 -6 -5 -5 -5 -4 -4 -4 -4 -4 -4 -4 -5 -5 -6 -6 -6 -7 -7 -6 -6 -6 -6 -6 -6 -7 -7 -7 -7 -8 -8 -8 -9 -9 -10 -10 -10 -10 -11 -11 -11 -12
-6 -6 -6 -5 -5 -5 -4 -4 -4 -4 -4 -4 -5 -5 -6 -6 -6 -7 -7 -7 -7 -6 -6 -6 -6 -7 -7 -7 -7 -8 -8 -8 -9 -9 -9 -10 -10 -10 -10 -11 -11 -11 -12
-6 -6 -5 -5 -5 -5 -4 -4 -4 -4 -4 -5 -5 -5 -6 -6 -7 -7 -7 -7 -7 -7 -7 -6 -6 -7 -7 -7 -7 -8 -8 -8 -9 -9 -9 -10 -10 -10 -10 -11 -11 -11 -12
-6 -5 -5 -5 -5 -4 -4 -4 -4 -5 -5 -5 -5 -6 -6 -7 -7 -7 -7 -7 -7 -7 -7 -7 -7 -7 -7 -7 -7 -8 -8 -9 -9 -9 -9 -10 -10 -10 -10 -11 -11 -11 -12
Wind_Speed
5 6 7 8 9 10 10 12 12 12 12 13 13 14 15 17 17 17 18 16 18 16 14 16 16 13 11 10 9 9 10 10 14 9 7 8 10 11 14 18 21 22 24
5 6 7 8 8 9 11 11 11 12 12 13 13 14 15 16 16 18 19 19 18 19 18 16 17 14 14 12 11 12 12 12 12 14 9 9 11 11 11 13 16 20 20
5 6 7 8 8 10 10 11 11 12 12 12 13 14 14 14 15 17 18 18 18 18 17 18 17 16 17 14 13 13 12 12 11 11 12 9 10 10 11 13 16 12 19
7 7 8 9 9 9 9 9 10 10 11 12 12 13 13 12 13 14 15 15 15 16 16 17 17 18 17 16 15 15 13 12 11 11 11 11 11 10 10 12 13 11 13
8 9 9 9 9 9 9 9 10 11 12 11 11 12 11 11 12 13 13 14 15 15 16 16 18 22 25 20 16 13 13 12 11 11 12 11 12 10 11 10 13 12 12
10 10 10 10 9 9 10 10 11 11 11 11 12 12 13 12 21 26 19 14 14 15 15 14 16 23 27 32 31 27 22 15 14 13 12 13 14 12 10 11 12 14 16
11 12 11 10 9 10 10 11 11 12 11 12 12 12 13 16 25 27 28 16 15 15 14 13 15 18 24 16 23 30 27 29 26 17 16 16 14 12 11 13 14 16 19
12 12 11 10 10 10 11 11 12 11 11 11 11 12 12 15 24 26 27 18 14 16 16 16 16 15 17 17 16 16 15 16 18 14 12 13 13 12 12 15 18 18 17
12 12 10 10 10 11 11 12 11 11 10 10 9 11 12 14 21 24 24 11 12 15 16 16 17 16 24 28 19 17 16 16 21 26 25 24 27 28 23 14 13 14 17
12 11 10 10 11 12 12 12 10 10 10 10 10 9 11 11 18 22 23 9 11 11 12 15 24 23 25 28 19 16 16 14 11 12 15 19 17 18 24 14 10 13 16
11 11 11 11 11 12 12 10 11 10 10 10 10 9 9 11 15 20 22 11 10 11 11 12 14 27 28 28 24 15 18 14 10 11 11 10 9 9 9 9 9 10 14
12 12 12 11 11 11 11 11 10 10 10 10 10 9 7 8 13 15 21 21 18 12 11 9 13 24 26 25 20 18 22 19 8 8 8 8 8 8 7 8 9 10 12
13 12 12 11 10 10 11 12 10 9 9 9 8 9 7 6 8 17 19 21 22 14 11 16 18 21 21 17 20 20 16 8 5 7 8 8 7 7 7 7 9 10 11
13 13 11 11 11 11 9 8 9 9 9 9 9 9 8 6 5 6 7 9 14 14 11 16 22 21 16 14 13 10 7 5 6 7 7 7 6 6 7 7 9 8 10
13 12 11 10 12 11 10 9 10 9 11 12 9 8 9 8 9 13 8 7 6 9 8 7 9 8 9 7 6 6 5 5 7 6 6 6 7 7 8 7 8 9 11
12 11 10 10 10 11 12 12 15 16 21 22 20 17 12 16 19 18 17 16 17 16 11 7 8 8 9 8 7 7 7 7 7 6 6 6 6 7 9 9 9 10 12
12 13 11 11 12 12 12 12 13 14 17 19 20 20 18 19 19 19 17 16 16 16 10 7 7 8 8 7 7 6 6 6 5 5 5 6 6 8 9 10 10 10 11
12 15 15 12 12 12 12 12 12 13 13 10 12 17 18 18 18 17 17 14 9 9 6 7 7 7 7 6 6 6 5 5 4 5 5 6 7 8 10 11 10 11 12
12 11 11 12 12 12 12 12 12 12 12 11 9 10 14 14 15 15 13 8 7 6 6 6 7 6 6 6 6 6 5 5 5 4 5 6 7 8 10 10 10 16 15
11 20 19 14 12 12 12 12 12 12 12 11 10 8 6 6 5 6 6 6 6 6 6 7 6 6 6 6 6 5 5 5 5 5 6 6 7 8 10 11 10 11 11
11 14 21 16 12 13 13 13 12 12 12 11 9 9 11 6 6 6 5 5 5 6 7 7 6 6 6 6 5 6 6 5 5 5 6 6 7 8 8 9 10 10 11
11 12 12 13 13 13 13 12 12 12 12 12 9 8 12 7 5 5 5 4 5 6 6 7 6 6 6 6 6 6 5 5 5 5 6 6 7 8 8 8 9 10 11
11 13 13 13 13 17 16 12 12 11 11 10 8 6 5 5 5 5 4 4 5 6 6 6 6 5 5 5 5 5 5 5 5 5 6 7 7 7 7 9 11 12 11
12 14 15 14 14 13 13 12 11 11 10 9 7 6 5 5 5 4 3 3 5 6 6 6 6 7 8 5 4 4 4 4 4 5 7 7 7 7 7 9 10 12 11
13 14 14 14 14 13 12 12 11 10 9 7 5 5 4 4 4 3 3 4 5 6 7 6 5 6 7 7 5 4 7 9 8 6 5 5 7 8 8 9 10 11 11
13 14 13 13 12 12 12 11 10 10 8 6 4 4 4 4 4 4 4 4 5 5 6 5 5 6 6 5 6 6 8 8 9 10 5 4 6 7 8 8 10 10 10
Wind_Direction
257 253 253 249 243 240 241 242 241 241 237 234 228 222 220 219 218 220 223 218 220 221 218 217 218 211 211 212 211 212 217 221 242 246 242 253 253 257 266 267 269 268 269
273 265 262 260 255 250 248 248 244 243 240 238 233 229 226 222 218 219 223 220 219 220 218 216 217 212 211 212 214 217 221 223 234 249 251 252 253 256 258 262 269 269 266
298 285 278 273 266 260 258 255 249 246 244 240 236 235 231 225 220 221 221 221 220 220 216 216 215 211 214 215 215 220 224 229 231 243 253 253 259 259 261 266 265 265 268
303 294 288 282 276 272 272 270 265 257 252 247 242 239 235 228 223 222 220 220 220 219 216 216 214 214 215 214 218 221 223 228 232 240 251 256 260 257 256 265 270 264 267
304 298 289 285 284 284 283 280 276 269 262 254 249 245 238 230 226 222 220 220 219 218 217 216 216 217 218 218 221 220 220 225 231 238 248 256 259 258 256 259 269 274 268
305 295 289 287 285 283 281 280 277 272 267 260 253 249 244 241 244 242 233 224 222 221 220 217 218 226 228 228 229 227 221 222 229 234 244 249 255 255 258 262 271 279 281
301 296 293 289 286 283 282 282 277 273 267 261 256 250 248 247 251 251 246 231 222 224 222 219 222 224 228 230 238 239 237 234 231 229 239 247 255 258 261 270 271 272 275
298 295 293 291 288 287 284 281 279 274 267 263 259 252 249 250 254 254 251 242 222 220 220 219 221 221 223 223 227 234 241 246 249 250 249 256 262 264 262 266 271 275 275
295 294 295 296 293 291 288 284 281 278 273 267 262 255 251 252 255 255 252 239 229 222 218 216 219 221 226 227 224 226 234 240 249 250 252 256 259 265 268 273 276 283 286
295 296 300 300 297 294 290 288 287 284 280 275 268 257 253 249 254 256 253 237 232 227 219 217 222 222 226 230 225 221 229 234 232 243 255 264 268 272 277 273 270 278 283
302 303 302 298 295 294 294 292 292 289 287 282 276 267 256 253 259 258 254 236 229 228 225 219 217 226 228 229 227 222 231 234 229 239 250 254 255 254 255 251 247 255 273
304 301 298 296 297 297 294 294 290 290 291 288 284 280 265 259 262 259 257 251 241 228 227 219 215 221 228 231 233 233 238 245 236 236 248 255 257 259 257 254 251 250 255
305 301 299 298 296 293 293 296 296 292 290 289 284 283 278 257 256 264 262 258 253 239 222 222 219 220 223 230 235 237 241 238 223 240 252 258 255 258 262 267 267 264 264
304 302 299 299 298 295 291 290 291 289 287 286 284 283 281 269 251 245 247 260 261 256 240 225 222 220 218 217 227 239 231 221 225 239 250 256 261 267 270 271 278 282 285
299 298 298 297 296 297 292 289 287 277 278 284 280 272 277 276 264 264 253 235 232 243 234 212 209 206 204 198 201 210 214 228 247 239 246 259 267 274 278 277 278 284 287
304 303 300 298 297 295 296 295 287 285 291 288 284 280 274 273 277 274 271 263 253 244 236 217 205 199 198 199 204 210 214 221 228 235 244 255 268 277 284 284 282 284 287
303 302 302 298 297 296 295 296 298 298 293 291 288 287 283 281 279 275 267 261 254 245 233 208 196 192 194 195 200 205 212 217 218 228 241 253 266 276 282 287 288 288 289
297 300 301 296 294 293 293 292 293 295 299 293 289 289 288 285 282 278 267 255 245 236 218 197 188 185 186 191 198 204 210 214 218 229 242 254 264 276 283 286 288 289 294
297 296 294 292 290 290 289 289 288 287 287 289 287 285 286 286 285 282 270 242 222 211 198 186 179 179 182 187 195 200 204 212 223 231 247 257 265 274 281 284 289 295 299
297 298 300 296 293 292 290 289 289 288 288 286 283 278 276 275 268 271 257 232 212 195 184 180 176 176 179 185 192 195 204 217 227 238 249 258 265 273 281 286 290 294 295
295 297 299 297 292 291 291 291 290 287 286 285 278 271 272 259 252 253 245 230 205 188 179 175 173 175 178 184 189 197 207 221 230 240 252 262 270 279 282 285 290 293 296
294 294 294 293 293 292 291 288 287 286 286 285 281 274 276 265 251 250 239 225 193 176 171 169 172 177 182 187 191 198 210 223 233 242 255 266 275 281 285 289 294 297 298
295 295 295 294 293 292 293 290 289 288 287 284 276 262 252 245 248 243 230 209 180 168 164 164 168 174 179 184 187 192 207 224 231 241 261 274 281 284 288 295 296 299 300
296 296 296 295 294 292 292 292 292 291 288 281 269 255 243 237 238 232 216 193 168 160 160 163 169 177 178 179 186 196 208 225 233 247 259 271 281 285 290 293 296 296 298
298 296 295 295 294 294 294 294 294 292 288 278 265 252 237 227 221 207 182 162 155 156 158 159 164 172 178 181 188 206 233 248 261 268 262 270 279 285 291 293 296 299 299
299 297 296 294 293 294 295 298 297 294 287 278 261 242 224 210 193 177 162 154 152 153 155 157 162 166 172 184 201 222 244 261 276 288 289 276 285 293 298 297 298 302 302
Height
1460 1457 1454 1450 1447 1444 1440 1437 1434 1432 1430 1428 1426 1424 1422 1420 1419 1418 1417 1417 1417 1417 1418 1419 1420 1423 1424 1426 1428 1429 1429 1429 1425 1424 1427 1428 1427 1426 1424 1423 1421 1418 1416
1456 1453 1449 1445 1441 1437 1434 1430 1427 1424 1421 1419 1416 1414 1411 1409 1408 1407 1405 1405 1405 1405 1406 1408 1409 1412 1414 1416 1418 1419 1420 1420 1418 1416 1417 1418 1418 1416 1414 1412 1410 1408 1406
1452 1448 1444 1440 1435 1431 1427 1423 1419 1415 1412 1409 1406 1403 1401 1399 1398 1396 1395 1394 1394 1394 1395 1397 1399 1402 1403 1406 1408 1410 1411 1412 1411 1409 1407 1409 1408 1407 1405 1402 1400 1398 1396
1447 1442 1438 1434 1429 1425 1420 1416 1411 1407 1403 1399 1396 1393 1391 1389 1388 1386 1385 1384 1384 1384 1385 1387 1389 1391 1393 1397 1399 1401 1402 1403 1403 1401 1400 1399 1398 1397 1396 1393 1390 1388 1386
1441 1437 1432 1427 1422 1417 1412 1407 1403 1398 1394 1390 1386 1383 1380 1378 1376 1376 1375 1374 1374 1374 1375 1376 1378 1381 1384 1387 1390 1391 1393 1394 1394 1393 1392 1391 1389 1388 1387 1385 1382 1378 1375
1436 1430 1425 1420 1415 1409 1404 1399 1393 1388 1384 1380 1376 1373 1370 1367 1366 1365 1364 1362 1362 1363 1364 1365 1368 1372 1375 1378 1381 1382 1384 1384 1384 1385 1383 1382 1379 1379 1379 1377 1374 1370 1363
1430 1424 1419 1413 1407 1401 1396 1390 1384 1379 1374 1370 1366 1362 1359 1357 1357 1355 1355 1353 1351 1352 1353 1356 1359 1361 1366 1368 1372 1375 1376 1376 1377 1377 1375 1373 1372 1371 1371 1368 1365 1360 1354
1423 1417 1412 1406 1399 1393 1387 1381 1376 1371 1365 1361 1356 1353 1349 1347 1346 1345 1345 1345 1342 1341 1343 1345 1348 1351 1355 1359 1362 1364 1365 1367 1369 1369 1367 1365 1365 1364 1363 1360 1355 1349 1344
1416 1410 1405 1399 1392 1386 1379 1373 1368 1363 1357 1353 1348 1344 1341 1338 1337 1336 1336 1334 1334 1332 1333 1336 1339 1341 1345 1350 1353 1354 1355 1357 1359 1359 1359 1357 1356 1356 1355 1352 1348 1343 1334
1409 1403 1398 1392 1385 1378 1372 1366 1361 1356 1350 1345 1340 1337 1333 1330 1329 1327 1327 1326 1325 1326 1326 1327 1330 1333 1337 1341 1344 1345 1346 1347 1350 1350 1350 1349 1348 1347 1346 1344 1340 1335 1327
1403 1396 1390 1384 1378 1371 1365 1360 1354 1349 1343 1338 1333 1329 1326 1323 1321 1320 1319 1319 1318 1318 1319 1320 1322 1326 1330 1333 1336 1338 1339 1341 1342 1342 1341 1339 1338 1337 1335 1334 1331 1327 1321
1395 1388 1382 1376 1370 1364 1358 1353 1348 1342 1336 1331 1326 1322 1319 1316 1314 1312 1311 1312 1311 1311 1312 1314 1316 1319 1323 1326 1329 1331 1333 1335 1335 1334 1333 1331 1330 1328 1326 1324 1321 1317 1313
1386 1380 1374 1368 1363 1357 1352 1346 1341 1336 1330 1325 1320 1315 1311 1309 1307 1306 1305 1305 1305 1305 1305 1308 1311 1314 1317 1320 1323 1325 1327 1328 1328 1327 1325 1324 1322 1320 1317 1314 1310 1306 1302
1378 1372 1366 1361 1355 1350 1345 1340 1335 1330 1324 1319 1314 1310 1306 1303 1301 1299 1298 1297 1297 1298 1300 1302 1305 1308 1311 1313 1316 1318 1320 1321 1320 1319 1318 1317 1315 1313 1309 1306 1301 1297 1291
1371 1365 1359 1354 1348 1342 1338 1334 1329 1324 1320 1315 1309 1305 1301 1296 1295 1294 1292 1290 1290 1291 1293 1295 1299 1302 1304 1307 1309 1311 1313 1314 1314 1313 1312 1310 1308 1305 1302 1298 1294 1289 1283
1364 1358 1352 1346 1341 1336 1330 1325 1322 1318 1313 1309 1305 1301 1295 1292 1289 1288 1287 1286 1286 1287 1289 1289 1292 1295 1298 1301 1303 1305 1307 1307 1307 1307 1305 1304 1302 1299 1295 1291 1287 1283 1277
1358 1351 1345 1339 1334 1329 1324 1319 1313 1309 1307 1302 1298 1294 1290 1287 1284 1282 1281 1280 1281 1282 1283 1284 1287 1290 1293 1296 1298 1300 1301 1301 1301 1301 1300 1298 1296 1292 1289 1285 1281 1276 1270
1351 1345 1339 1333 1328 1323 1318 1314 1308 1303 1298 1294 1291 1288 1284 1281 1278 1275 1275 1275 1275 1276 1277 1279 1282 1285 1288 1291 1293 1295 1295 1296 1296 1295 1294 1292 1290 1287 1283 1279 1275 1270 1264
1343 1337 1331 1326 1321 1317 1312 1307 1303 1298 1293 1288 1284 1281 1278 1275 1272 1270 1269 1269 1269 1271 1273 1275 1278 1281 1284 1287 1288 1290 1290 1290 1290 1289 1288 1287 1284 1282 1278 1274 1269 1264 1259
1335 1330 1325 1320 1315 1310 1306 1301 1296 1292 1287 1282 1278 1274 1272 1269 1266 1264 1263 1263 1265 1266 1269 1272 1275 1278 1280 1282 1284 1285 1285 1285 1285 1284 1283 1281 1279 1276 1272 1268 1263 1258 1253
1327 1322 1317 1313 1308 1304 1299 1294 1290 1285 1280 1276 1272 1269 1266 1263 1261 1260 1259 1259 1261 1263 1265 1268 1271 1274 1277 1278 1280 1280 1280 1280 1280 1279 1278 1276 1274 1271 1267 1263 1258 1253 1247
1321 1315 1311 1306 1301 1297 1292 1288 1283 1278 1274 1270 1265 1263 1261 1258 1256 1255 1255 1256 1257 1260 1262 1265 1268 1271 1273 1274 1275 1276 1276 1275 1275 1274 1273 1271 1269 1265 1262 1257 1252 1247 1242
1314 1309 1304 1299 1295 1290 1285 1281 1276 1272 1268 1264 1260 1257 1255 1253 1252 1251 1251 1252 1254 1257 1260 1262 1265 1267 1269 1270 1271 1271 1271 1271 1271 1270 1268 1266 1264 1260 1257 1252 1247 1242 1237
1308 1303 1297 1292 1288 1283 1279 1274 1270 1266 1262 1258 1254 1252 1250 1249 1248 1248 1248 1250 1252 1254 1257 1260 1262 1264 1266 1267 1267 1267 1267 1267 1267 1266 1264 1262 1259 1256 1252 1247 1242 1237 1232
1301 1296 1291 1286 1282 1277 1273 1268 1264 1260 1256 1252 1249 1247 1245 1244 1244 1245 1246 1248 1250 1253 1255 1258 1260 1262 1263 1264 1264 1264 1264 1264 1263 1262 1260 1258 1255 1251 1247 1242 1237 1232 1228
1294 1289 1285 1280 1276 1272 1267 1262 1258 1254 1250 1247 1244 1242 1241 1241 1241 1242 1244 1246 1248 1251 1253 1256 1258 1259 1260 1261 1261 1261 1261 1260 1260 1258 1256 1254 1250 1246 1242 1237 1233 1228 1224